DM5RC Weather Reports


Display with metric or nautical units.
time (UTC)temp
F
wind
direction
speed
MPH
gust
MPH
rain 1hr
in
rain 24hr
in
rain mn
in
humidity
%
barometer
mb
20260506141316 63 360 5.0 11.0 0.00 3.03 0.59 77 1005.3
20260506140817 63 53 5.0 11.0 0.00 3.03 0.59 77 1005.2
20260506140317 63 17 1.0 13.0 0.00 3.03 0.59 79 1005.3
20260506135836 63 19 9.0 13.0 0.00 3.03 0.59 77 1005.2
20260506135316 63 357 4.0 11.0 0.00 3.03 0.59 78 1005.2
20260506134819 62 296 4.0 11.0 0.00 3.03 0.59 78 1005.2
20260506134321 62 23 7.0 11.0 0.00 3.03 0.59 77 1005.3
20260506133821 62 285 4.0 11.0 0.00 3.03 0.59 77 1005.3
20260506133321 63 342 3.0 11.0 0.00 3.03 0.59 77 1005.3
20260506132821 63 19 5.0 10.0 0.00 3.03 0.59 76 1005.2
20260506132322 63 335 5.0 8.0 0.00 3.03 0.59 75 1005.2
20260506131824 64 9 3.0 7.0 0.00 3.03 0.59 77 1005.1
20260506131346 64 296 2.0 10.0 0.00 3.03 0.59 77 1005.2
20260506130847 64 341 5.0 12.0 0.00 3.03 0.59 76 1005.1
20260506130329 64 348 6.0 15.0 0.00 3.03 0.59 77 1005.0
20260506125831 65 12 6.0 15.0 0.00 3.03 0.59 74 1005.1
20260506125313 64 12 6.0 15.0 0.00 3.03 0.59 75 1005.2
20260506124813 64 319 9.0 15.0 0.00 3.03 0.59 76 1005.0
20260506124336 64 345 4.0 13.0 0.00 3.03 0.59 77 1005.0
20260506123817 64 2 6.0 14.0 0.00 3.03 0.59 76 1005.0
20260506123320 64 288 5.0 14.0 0.00 3.03 0.59 77 1004.9
20260506122823 64 334 4.0 9.0 0.00 3.03 0.59 77 1004.9
20260506122328 63 272 4.0 9.0 0.00 3.03 0.59 77 1005.0
20260506121831 63 284 4.0 9.0 0.00 3.03 0.59 78 1004.9
20260506121312 63 255 4.0 10.0 0.00 3.03 0.59 77 1005.0
20260506120815 63 276 5.0 11.0 0.00 3.03 0.59 78 1005.0
20260506120319 63 291 5.0 11.0 0.00 3.03 0.59 78 1004.9
20260506115820 62 255 9.0 11.0 0.00 3.03 0.59 77 1004.9
20260506115321 63 347 4.0 11.0 0.00 3.03 0.59 78 1004.9
20260506114822 62 319 5.0 14.0 0.00 3.03 0.59 78 1004.9
20260506114323 62 310 5.0 14.0 0.00 3.03 0.59 79 1005.0
20260506113824 62 273 5.0 17.0 0.00 3.03 0.59 79 1004.9
20260506113344 62 16 8.0 17.0 0.00 3.03 0.59 78 1004.9
20260506112824 63 4 7.0 17.0 0.00 3.03 0.59 78 1004.9
20260506112327 63 281 5.0 17.0 0.00 3.03 0.59 79 1004.8
20260506111832 63 345 9.0 15.0 0.00 3.03 0.59 78 1004.7
20260506111315 63 273 6.0 15.0 0.00 3.03 0.59 77 1004.7
20260506110820 63 286 8.0 15.0 0.00 3.03 0.59 78 1004.6
20260506110321 64 342 7.0 13.0 0.00 3.03 0.59 78 1004.6
20260506105842 64 279 5.0 14.0 0.00 3.03 0.59 78 1004.5
20260506105321 63 257 6.0 15.0 0.00 3.03 0.59 78 1004.5
20260506104823 63 279 6.0 13.0 0.00 3.03 0.59 78 1004.4
20260506104327 63 267 6.0 13.0 0.00 3.03 0.59 79 1004.4
20260506103831 63 322 5.0 16.0 0.00 3.03 0.59 79 1004.5
20260506103314 62 250 7.0 16.0 0.00 3.03 0.59 81 1004.4
20260506102817 62 295 5.0 15.0 0.00 3.03 0.59 81 1004.5
20260506102319 63 283 8.0 15.0 0.00 3.03 0.59 80 1004.3
20260506101821 63 19 4.0 12.0 0.00 3.03 0.59 83 1004.3
20260506101323 62 254 5.0 11.0 0.00 3.03 0.59 83 1004.3
20260506100823 61 330 4.0 20.0 0.00 3.03 0.59 84 1004.2
20260506100323 61 272 10.0 20.0 0.00 3.03 0.59 82 1004.2
20260506095825 62 312 6.0 17.0 0.00 3.03 0.59 80 1004.1
20260506095328 63 300 10.0 17.0 0.00 3.03 0.59 79 1004.0
20260506094831 63 292 9.0 17.0 0.00 3.03 0.59 80 1003.9
20260506094327 62 309 8.0 17.0 0.00 3.03 0.59 81 1003.7
20260506093830 62 275 7.0 18.0 0.00 3.03 0.59 82 1003.7
20260506093314 61 276 7.0 18.0 0.00 3.03 0.59 84 1003.6
20260506092816 61 280 9.0 18.0 0.00 3.03 0.59 83 1003.5
20260506092315 61 271 7.0 22.0 0.00 3.03 0.59 83 1003.6
20260506091816 61 277 8.0 22.0 0.00 3.03 0.59 82 1003.4
20260506090819 62 307 9.0 20.0 0.00 3.03 0.59 83 1003.1
20260506090322 62 299 5.0 20.0 0.00 3.03 0.59 83 1003.1
20260506085825 62 241 11.0 20.0 0.00 3.15 0.59 82 1003.1
20260506085346 61 284 7.0 20.0 0.00 3.15 0.59 85 1003.0
20260506084827 61 259 10.0 20.0 0.00 3.15 0.59 85 1003.0
20260506084329 60 267 6.0 20.0 0.00 3.15 0.59 87 1002.8
20260506083831 61 266 8.0 18.0 0.00 3.15 0.59 87 1002.8
20260506083332 60 255 6.0 18.0 0.00 3.15 0.59 90 1002.8
20260506082812 59 236 5.0 10.0 0.00 3.15 0.59 90 1003.0
20260506082313 59 271 5.0 9.0 0.00 3.15 0.59 91 1002.9
20260506081813 59 262 4.0 14.0 0.00 3.15 0.59 92 1002.9
20260506081333 58 257 8.0 14.0 0.00 3.15 0.59 92 1002.9
20260506080813 58 275 2.0 8.0 0.00 3.15 0.59 92 1002.8
20260506080333 58 249 4.0 9.0 0.00 3.15 0.59 92 1002.9
20260506073329 57 224 4.0 7.0 0.00 3.23 0.59 94 1002.8
20260506072852 57 240 3.0 7.0 0.00 3.23 0.59 94 1002.8
20260506072333 57 271 3.0 6.0 0.00 3.23 0.59 95 1002.8
20260506071815 57 219 2.0 7.0 0.00 3.23 0.59 95 1002.8
20260506071338 57 217 3.0 7.0 0.00 3.23 0.59 95 1002.9
20260506070820 57 248 3.0 7.0 0.00 3.23 0.59 95 1002.9
20260506070323 57 244 3.0 7.0 0.00 3.23 0.59 95 1002.9
20260506062318 57 229 1.0 4.0 0.00 3.23 0.59 96 1002.8
20260506061821 57 188 1.0 4.0 0.00 3.23 0.59 97 1002.8
20260506061323 57 201 1.0 5.0 0.00 3.23 0.59 97 1002.9
20260506060826 57 148 2.0 5.0 0.00 3.23 0.59 97 1002.8
20260506060328 56 142 3.0 6.0 0.00 3.23 0.59 97 1002.9
20260506051316 55 243 1.0 3.0 0.04 3.23 0.59 97 1003.1
20260506050821 55 230 1.0 3.0 0.04 3.23 0.59 97 1003.2
20260506050352 55 157 1.0 5.0 0.04 3.23 0.59 97 1003.2
20260506044837 54 107 3.0 6.0 0.04 3.23 0.59 96 1003.2
20260506044316 54 108 2.0 6.0 0.04 3.23 0.59 97 1003.2
20260506043816 54 46 3.0 6.0 0.04 3.23 0.59 97 1003.3
20260506043316 54 70 0.0 5.0 0.04 3.23 0.59 96 1003.3
20260506042817 54 70 0.0 6.0 0.04 3.23 0.59 96 1003.3
20260506042317 54 71 2.0 7.0 0.00 3.19 0.58 96 1003.3
20260506041838 54 134 2.0 8.0 0.00 3.19 0.58 96 1003.3
20260506041317 54 68 3.0 8.0 0.00 3.19 0.58 96 1003.3
20260506040817 55 105 2.0 6.0 0.00 3.19 0.58 96 1003.4
20260506040318 54 129 4.0 6.0 0.00 3.19 0.58 96 1003.3
20260506035819 55 118 1.0 4.0 0.00 3.19 0.58 96 1003.3
20260506035320 55 110 1.0 6.0 0.00 3.19 0.58 97 1003.4
20260506034823 55 119 2.0 6.0 0.00 3.19 0.58 97 1003.5
20260506034325 54 124 1.0 6.0 0.00 3.19 0.58 97 1003.5
20260506033827 54 123 2.0 6.0 0.00 3.19 0.58 96 1003.5
20260506033329 54 148 0.0 5.0 0.00 3.19 0.58 96 1003.6
20260506032852 54 152 1.0 5.0 0.00 3.19 0.58 96 1003.6
20260506032353 54 126 3.0 5.0 0.00 3.19 0.58 96 1003.6
20260506031814 54 115 1.0 4.0 0.00 3.19 0.58 96 1003.7
20260506031316 54 137 2.0 4.0 0.00 3.19 0.58 96 1003.7
20260506030819 54 203 1.0 2.0 0.00 3.19 0.58 96 1003.8
20260506030322 54 206 1.0 3.0 0.00 3.19 0.58 96 1003.8
20260506025820 54 246 1.0 3.0 0.00 3.19 0.58 96 1003.7
20260506025322 54 229 1.0 3.0 0.00 3.19 0.58 96 1003.7
20260506024844 54 141 1.0 2.0 0.00 3.19 0.58 96 1003.7
20260506024346 54 127 1.0 5.0 0.00 3.19 0.58 96 1003.5
20260506023827 54 123 2.0 7.0 0.00 3.19 0.58 96 1003.6
20260506023312 54 111 3.0 10.0 0.00 3.19 0.58 96 1003.5
20260506022836 54 82 5.0 10.0 0.00 3.19 0.58 96 1003.5
20260506022318 54 76 4.0 12.0 0.04 3.19 0.58 96 1003.6
20260506021821 54 53 6.0 12.0 0.04 3.19 0.58 96 1003.6
20260506021322 54 45 6.0 12.0 0.04 3.19 0.58 96 1003.6
20260506020824 54 68 5.0 12.0 0.04 3.19 0.58 96 1003.6
20260506020346 54 139 5.0 13.0 0.08 3.19 0.58 96 1003.6
20260506015909 54 96 6.0 13.0 0.08 3.19 0.58 96 1003.6
20260506015347 55 68 6.0 13.0 0.08 3.19 0.58 96 1003.6
20260506014828 55 52 8.0 15.0 0.12 3.19 0.58 96 1003.6
20260506014328 55 34 6.0 15.0 0.12 3.19 0.58 96 1003.5
20260506013829 54 43 10.0 15.0 0.16 3.19 0.58 96 1003.6
20260506013330 55 46 9.0 16.0 0.20 3.19 0.58 96 1003.6
20260506012830 54 35 8.0 16.0 0.28 3.19 0.58 96 1003.6
20260506012331 55 53 9.0 17.0 0.31 3.15 0.57 96 1003.6
20260506011832 55 63 10.0 17.0 0.39 3.15 0.57 96 1003.8
20260506011313 55 65 8.0 14.0 0.47 3.15 0.57 96 1003.9
20260506010815 55 53 8.0 14.0 0.55 3.15 0.57 96 1003.9
20260506010318 55 75 7.0 14.0 0.63 3.11 0.57 96 1003.9
20260506005819 55 59 6.0 12.0 0.91 3.11 0.57 96 1003.9
20260506005318 55 37 6.0 11.0 1.02 3.11 0.57 96 1004.2
20260506004821 55 42 6.0 10.0 1.30 3.07 0.56 96 1004.5
20260506004314 56 67 4.0 9.0 1.69 3.07 0.56 96 1004.6
20260506003832 55 16 4.0 9.0 1.65 3.03 0.55 96 1004.8
20260506003332 56 359 3.0 8.0 1.57 2.95 0.54 96 1005.0
20260506002833 56 17 4.0 9.0 1.54 2.91 0.53 96 1005.0
20260506002332 56 32 5.0 9.0 1.46 2.83 0.51 96 1005.1
20260506001832 56 54 4.0 8.0 1.38 2.76 0.50 96 1005.3
20260506001314 55 25 3.0 5.0 1.30 2.68 0.48 96 1005.5
20260506000817 55 53 3.0 4.0 1.26 2.60 0.46 96 1005.7
20260506000322 55 17 3.0 4.0 1.14 2.48 0.44 96 1006.0
20260505235823 55 234 0.0 3.0 0.91 2.20 0.39 96 1006.4
20260505235325 55 219 1.0 7.0 0.75 2.05 0.35 96 1006.5
20260505234828 55 226 3.0 9.0 0.47 1.73 0.29 96 1006.5
20260505234350 55 270 4.0 9.0 0.16 1.38 0.22 96 1006.4
20260505233831 55 234 2.0 8.0 0.16 1.38 0.22 95 1006.1
20260505233312 55 65 4.0 9.0 0.16 1.38 0.22 95 1005.5
20260505232814 55 20 5.0 9.0 0.16 1.38 0.22 95 1005.3
20260505232335 55 23 4.0 9.0 0.20 1.38 0.22 95 1005.3
20260505231817 55 27 5.0 10.0 0.24 1.38 0.22 95 1005.3
20260505231319 56 13 3.0 10.0 0.75 1.38 0.22 95 1005.2
20260505230842 56 63 4.0 10.0 0.75 1.34 0.21 95 1005.1
20260505230322 56 36 4.0 12.0 0.79 1.34 0.21 95 1005.0
20260505225844 56 85 7.0 12.0 1.10 1.30 0.20 95 1004.9
20260505225323 56 25 4.0 7.0 1.06 1.26 0.20 95 1005.3
20260505224824 56 58 3.0 8.0 1.06 1.26 0.20 95 1005.6
20260505224327 56 51 4.0 8.0 1.02 1.22 0.19 94 1005.6
20260505223828 56 46 3.0 8.0 1.02 1.22 0.19 94 1005.5
20260505223350 56 32 4.0 8.0 1.02 1.22 0.19 94 1005.3
20260505222813 56 324 2.0 10.0 1.02 1.22 0.19 94 1005.2
20260505222315 56 11 5.0 12.0 0.98 1.18 0.18 93 1005.2
20260505221816 57 12 6.0 12.0 0.91 1.10 0.17 93 1005.5
20260505221318 57 59 4.0 6.0 0.43 0.63 0.07 92 1006.2
20260505220819 57 61 1.0 5.0 0.39 0.59 0.06 92 1006.3
20260505220339 57 41 2.0 5.0 0.35 0.55 0.06 91 1006.2
20260505215820 58 52 1.0 10.0 0.00 0.20 0.04 91 1006.2
20260505215342 57 49 4.0 10.0 0.00 0.20 0.04 91 1006.0
20260505214823 57 49 5.0 9.0 0.00 0.20 0.04 91 1006.3
20260505214325 57 67 4.0 8.0 0.00 0.20 0.04 91 1006.2
20260505213828 57 27 5.0 8.0 0.00 0.20 0.04 91 1006.2
20260505213331 58 49 4.0 8.0 0.00 0.20 0.04 91 1006.1
20260505212813 58 70 3.0 9.0 0.00 0.20 0.04 91 1005.9
20260505212317 58 65 4.0 10.0 0.00 0.20 0.04 90 1005.9
20260505211838 58 53 6.0 11.0 0.00 0.20 0.04 90 1006.0
20260505211340 58 42 5.0 12.0 0.00 0.20 0.04 90 1006.1
20260505210841 58 74 7.0 18.0 0.00 0.20 0.04 90 1006.1
20260505210321 58 60 10.0 18.0 0.00 0.20 0.04 89 1006.0
20260505205840 58 51 7.0 16.0 0.00 0.20 0.04 89 1006.0
20260505204821 59 69 7.0 16.0 0.00 0.20 0.04 89 1006.0
20260505204323 59 56 10.0 16.0 0.00 0.20 0.04 88 1005.9
20260505203321 59 49 7.0 12.0 0.00 0.20 0.04 88 1005.9
20260505202825 59 43 7.0 12.0 0.00 0.20 0.04 87 1005.9
20260505202327 59 57 6.0 10.0 0.00 0.20 0.04 87 1006.0
20260505201830 59 46 4.0 8.0 0.00 0.20 0.04 87 1006.0
20260505201332 60 31 4.0 9.0 0.00 0.20 0.04 87 1006.1
20260505200828 60 84 6.0 9.0 0.00 0.20 0.04 86 1006.0
20260505200328 60 43 4.0 10.0 0.00 0.20 0.04 86 1006.0
20260505195848 60 46 6.0 10.0 0.00 0.20 0.04 85 1006.0
20260505195326 60 45 5.0 10.0 0.00 0.20 0.04 85 1006.0
20260505194826 60 63 5.0 8.0 0.00 0.20 0.04 85 1005.9
20260505194327 60 42 3.0 7.0 0.00 0.20 0.04 86 1005.9
20260505193828 60 61 2.0 7.0 0.00 0.20 0.04 86 1005.9
20260505192830 61 60 3.0 6.0 0.00 0.20 0.04 87 1005.9
20260505192312 61 25 3.0 6.0 0.00 0.20 0.04 88 1005.9
20260505191815 61 49 2.0 7.0 0.00 0.20 0.04 87 1006.0
20260505191318 61 49 3.0 7.0 0.00 0.20 0.04 88 1006.0
20260505190820 61 58 3.0 7.0 0.00 0.20 0.04 87 1006.0
20260505190343 61 39 3.0 7.0 0.00 0.20 0.04 87 1006.1
20260505185824 62 41 3.0 7.0 0.00 0.20 0.04 86 1006.0
20260505185348 62 3 2.0 9.0 0.00 0.20 0.04 86 1006.0
20260505184828 62 25 4.0 9.0 0.00 0.20 0.04 85 1005.9
20260505184330 62 13 3.0 9.0 0.00 0.20 0.04 85 1005.8
20260505183814 62 45 3.0 8.0 0.00 0.20 0.04 85 1005.8
20260505183334 62 61 3.0 8.0 0.00 0.20 0.04 84 1005.9
20260505182324 63 15 3.0 8.0 0.00 0.20 0.04 83 1006.0
20260505181825 63 24 4.0 11.0 0.00 0.20 0.04 82 1006.0
20260505181325 63 351 4.0 11.0 0.00 0.20 0.04 81 1006.0
20260505180827 63 27 4.0 9.0 0.00 0.20 0.04 81 1006.1
20260505180329 64 52 4.0 9.0 0.00 0.20 0.04 82 1006.1
20260505175831 64 56 3.0 9.0 0.00 0.20 0.04 82 1006.1
20260505175313 64 51 4.0 9.0 0.00 0.20 0.04 81 1006.1
20260505174836 64 46 4.0 8.0 0.00 0.20 0.04 81 1006.2
20260505174320 64 58 4.0 8.0 0.00 0.20 0.04 81 1006.1
20260505173825 64 33 5.0 8.0 0.00 0.20 0.04 80 1006.1
20260505173328 65 53 2.0 8.0 0.00 0.20 0.04 80 1006.1
20260505172825 65 46 2.0 8.0 0.00 0.20 0.04 80 1006.1
20260505172330 65 33 2.0 9.0 0.00 0.20 0.04 79 1006.1
20260505171814 65 51 2.0 9.0 0.00 0.20 0.04 79 1006.1
20260505171317 65 36 2.0 4.0 0.00 0.20 0.04 79 1006.1
20260505170841 65 22 2.0 5.0 0.00 0.20 0.04 80 1006.2
20260505170324 65 51 2.0 5.0 0.00 0.20 0.04 79 1006.2
20260505165825 66 65 2.0 5.0 0.00 0.20 0.04 79 1006.2
20260505165324 66 20 3.0 8.0 0.00 0.20 0.04 79 1006.1
20260505164825 66 52 4.0 8.0 0.00 0.20 0.04 78 1006.1
20260505164324 65 6 4.0 6.0 0.00 0.20 0.04 78 1006.3
20260505163825 65 68 3.0 7.0 0.00 0.20 0.04 79 1006.4
20260505163324 65 3 4.0 8.0 0.00 0.20 0.04 79 1006.4
20260505162824 65 51 3.0 8.0 0.00 0.20 0.04 80 1006.4
20260505162324 65 46 4.0 8.0 0.00 0.20 0.04 79 1006.4
20260505161845 65 44 4.0 9.0 0.00 0.20 0.04 79 1006.5
20260505161325 65 45 5.0 9.0 0.00 0.20 0.04 80 1006.5
20260505160828 65 82 3.0 8.0 0.00 0.20 0.04 80 1006.5
20260505160351 65 58 4.0 7.0 0.00 0.20 0.04 80 1006.5
20260505153323 66 46 5.0 7.0 0.00 0.20 0.04 78 1006.7
20260505152826 66 45 4.0 7.0 0.00 0.20 0.04 78 1006.8
20260505152348 66 24 2.0 6.0 0.00 0.20 0.04 79 1006.8
20260505151830 65 27 3.0 7.0 0.00 0.20 0.04 80 1006.8
20260505151313 65 26 3.0 7.0 0.00 0.20 0.04 79 1006.8
20260505150816 65 18 4.0 8.0 0.00 0.20 0.04 78 1006.8
20260505150340 65 32 4.0 8.0 0.00 0.20 0.04 80 1006.8